| time (UTC) | temp C | wind direction | speed KPH | gust KPH | rain 1hr cm | rain 24hr cm | rain mn cm | humidity % | barometer mb |
| 20260505074555 | 0 | 0 | 3.2 | 12.9 | 0.00 | 0.15 | 0.00 | 87 | 1003.6 |
| 20260505073057 | 0 | 0 | 0.0 | 12.9 | 0.00 | 0.15 | 0.00 | 88 | 1003.5 |
| 20260505071600 | 0 | 261 | 0.0 | 12.9 | 0.00 | 0.15 | 0.00 | 87 | 1003.6 |
| 20260505064557 | 0 | 261 | 4.8 | 17.7 | 0.00 | 0.15 | 0.00 | 84 | 1003.8 |
| 20260505063054 | 0 | 297 | 3.2 | 19.3 | 0.00 | 0.15 | 0.00 | 80 | 1003.7 |
| 20260505061612 | 0 | 315 | 1.6 | 29.0 | 0.00 | 0.15 | 0.00 | 79 | 1003.5 |
| 20260505060059 | 0 | 16 | 3.2 | 19.3 | 0.00 | 0.15 | 0.00 | 79 | 1003.5 |
| 20260505054557 | 0 | 284 | 1.6 | 11.3 | 0.00 | 0.15 | 0.00 | 79 | 1003.6 |
| 20260505053052 | 0 | 234 | 1.6 | 19.3 | 0.00 | 0.15 | 0.00 | 79 | 1003.4 |
| 20260505051550 | 0 | 278 | 3.2 | 22.5 | 0.00 | 0.15 | 0.00 | 80 | 1003.5 |
| 20260505041556 | 1 | 28 | 3.2 | 14.5 | 0.00 | 0.15 | 0.15 | 82 | 1002.9 |
| 20260505034554 | 1 | 269 | 0.0 | 11.3 | 0.00 | 0.15 | 0.15 | 86 | 1002.8 |
| 20260505033100 | 1 | 0 | 1.6 | 12.9 | 0.00 | 0.15 | 0.15 | 86 | 1002.7 |
| 20260505031556 | 1 | 9 | 4.8 | 17.7 | 0.00 | 0.15 | 0.15 | 83 | 1003.0 |
| 20260505030104 | 1 | 291 | 4.8 | 14.5 | 0.00 | 0.15 | 0.15 | 80 | 1002.7 |
| 20260505024553 | 2 | 296 | 1.6 | 12.9 | 0.00 | 0.15 | 0.15 | 80 | 1002.5 |
| 20260505023051 | 2 | 292 | 3.2 | 14.5 | 0.00 | 0.15 | 0.15 | 80 | 1002.3 |
| 20260505021553 | 2 | 0 | 1.6 | 14.5 | 0.00 | 0.15 | 0.15 | 80 | 1002.2 |
| 20260505020051 | 2 | 317 | 3.2 | 16.1 | 0.00 | 0.15 | 0.15 | 81 | 1001.9 |
| 20260505014553 | 2 | 321 | 3.2 | 12.9 | 0.00 | 0.15 | 0.15 | 84 | 1001.4 |
| 20260505013051 | 1 | 188 | 1.6 | 17.7 | 0.00 | 0.15 | 0.15 | 86 | 1001.5 |
| 20260505011552 | 1 | 285 | 0.0 | 9.7 | 0.00 | 0.15 | 0.15 | 88 | 1001.5 |
| 20260505010059 | 1 | 258 | 1.6 | 11.3 | 0.00 | 0.15 | 0.15 | 87 | 1001.3 |
| 20260505004552 | 3 | 264 | 3.2 | 22.5 | 0.00 | 0.15 | 0.15 | 79 | 1001.4 |
| 20260505003051 | 4 | 19 | 3.2 | 17.7 | 0.00 | 0.15 | 0.15 | 68 | 1000.9 |
| 20260505001550 | 4 | 282 | 1.6 | 19.3 | 0.00 | 0.15 | 0.15 | 68 | 1001.0 |
| 20260505000100 | 5 | 281 | 6.4 | 24.1 | 0.00 | 0.15 | 0.15 | 65 | 1000.8 |
| 20260504234602 | 5 | 230 | 4.8 | 17.7 | 0.00 | 0.15 | 0.15 | 61 | 1000.4 |
| 20260504233051 | 5 | 269 | 9.7 | 24.1 | 0.00 | 0.15 | 0.15 | 61 | 1000.3 |
| 20260504231550 | 5 | 250 | 3.2 | 19.3 | 0.00 | 0.15 | 0.15 | 62 | 1000.2 |
| 20260504230113 | 5 | 248 | 6.4 | 25.7 | 0.00 | 0.15 | 0.15 | 63 | 1000.1 |
| 20260504224605 | 5 | 290 | 6.4 | 27.4 | 0.00 | 0.15 | 0.15 | 64 | 999.9 |
| 20260504223058 | 5 | 272 | 6.4 | 19.3 | 0.00 | 0.15 | 0.15 | 63 | 999.8 |
| 20260504221556 | 5 | 320 | 4.8 | 29.0 | 0.00 | 0.15 | 0.15 | 63 | 999.8 |
| 20260504220104 | 5 | 236 | 6.4 | 25.7 | 0.00 | 0.15 | 0.15 | 63 | 999.5 |
| 20260504214559 | 6 | 288 | 6.4 | 22.5 | 0.00 | 0.15 | 0.15 | 64 | 999.3 |
| 20260504213110 | 6 | 264 | 6.4 | 22.5 | 0.00 | 0.15 | 0.15 | 64 | 998.9 |
| 20260504211555 | 6 | 246 | 11.3 | 29.0 | 0.00 | 0.15 | 0.15 | 63 | 998.9 |
| 20260504210105 | 6 | 311 | 8.0 | 25.7 | 0.00 | 0.15 | 0.15 | 63 | 998.9 |
| 20260504204603 | 6 | 269 | 8.0 | 30.6 | 0.00 | 0.15 | 0.15 | 64 | 998.9 |
| 20260504203052 | 6 | 292 | 8.0 | 29.0 | 0.00 | 0.15 | 0.15 | 65 | 998.3 |
| 20260504201558 | 7 | 20 | 8.0 | 19.3 | 0.00 | 0.15 | 0.15 | 68 | 998.3 |
| 20260504200054 | 6 | 276 | 6.4 | 17.7 | 0.00 | 0.15 | 0.15 | 71 | 998.3 |
| 20260504194630 | 6 | 292 | 3.2 | 24.1 | 0.00 | 0.15 | 0.15 | 70 | 998.0 |
| 20260504193103 | 7 | 234 | 8.0 | 27.4 | 0.00 | 0.15 | 0.15 | 66 | 997.7 |
| 20260504191548 | 6 | 270 | 8.0 | 22.5 | 0.00 | 0.15 | 0.15 | 66 | 997.6 |
| 20260504184552 | 7 | 38 | 4.8 | 25.7 | 0.00 | 0.15 | 0.15 | 68 | 997.3 |
| 20260504183059 | 7 | 248 | 4.8 | 30.6 | 0.00 | 0.15 | 0.15 | 75 | 997.0 |
| 20260504181552 | 6 | 258 | 9.7 | 24.1 | 0.00 | 0.15 | 0.15 | 76 | 996.9 |
| 20260504180131 | 6 | 269 | 4.8 | 14.5 | 0.00 | 0.15 | 0.15 | 83 | 996.5 |
| 20260504174552 | 6 | 250 | 3.2 | 17.7 | 0.00 | 0.15 | 0.15 | 79 | 996.3 |
| 20260504173052 | 6 | 298 | 6.4 | 22.5 | 0.00 | 0.15 | 0.15 | 85 | 995.8 |
| 20260504171553 | 7 | 229 | 6.4 | 25.7 | 0.00 | 0.15 | 0.15 | 74 | 995.8 |
| 20260504120108 | 6 | 290 | 1.6 | 17.7 | 0.08 | 0.15 | 0.15 | 94 | 991.2 |
| 20260504100111 | 10 | 266 | 4.8 | 30.6 | 0.00 | 0.00 | 0.00 | 70 | 991.6 |
| 20260504081601 | 13 | 301 | 8.0 | 33.8 | 0.00 | 0.00 | 0.00 | 44 | 990.3 |